#timestamp,LO_Frequency,Hit,StdDev 
1595239215.9,286047000.9,N
1595239235.7,286046999.4,N
1595239255.6,286046999.2,N
1595239275.4,286046998.9,N
1595239295.2,286046996.7,N
1595239315.1,286046999.4,N
1595239316.0,286046999.4,N
1595239335.8,286046997.1,N
1595239355.6,286046997.7,N
1595239375.5,286046997.1,N
1595239395.3,286046997.0,N
1595239415.2,286046999.5,N
1595239435.0,286046996.7,N
1595239435.9,286046996.7,N
1595239455.7,286046997.7,N
1595239475.6,286046997.2,N
1595239495.4,286046995.5,N
1595239515.3,286046995.8,N
1595239535.1,286046995.2,N
1595239555.8,286046996.2,N
1595239575.7,286046995.6,N
1595239595.5,286046995.9,N
1595239615.4,286046994.0,N
1595239635.2,286046993.9,N
1595239655.0,286046994.7,N
1595239655.9,286046994.7,N
1595239675.8,286046992.6,Y
1595239695.6,286046992.3,P
1595239715.5,286046994.7,N
1595239735.3,286046992.2,P
1595239755.1,286046994.1,N
1595239775.9,286046996.4,N
1595239795.7,286046994.6,N
1595239815.6,286046994.5,Y
1595239835.4,286047000.3,P
1595239855.2,286047000.8,N
1595239875.1,286047000.7,N
1595239876.0,286047000.7,N
1595239895.8,286046996.6,N
1595239915.7,286046998.7,N
1595239935.5,286047000.5,N
1595239955.3,286047002.4,N
1595239975.2,286047001.1,N
1595239995.0,286047000.7,N
1595239995.9,286047000.7,N
1595240015.8,286047000.8,N
1595240035.6,286047001.2,N
1595240055.4,286046998.6,N
1595240075.3,286047001.0,N
1595240095.1,286047000.0,N
1595240115.8,286047000.0,N
1595240135.7,286047000.2,N
1595240155.5,286047001.0,N
1595240175.4,286047000.3,N
1595240195.2,286047000.2,N
1595240215.0,286047002.0,N
1595240215.9,286047002.0,N
1595240235.8,286047001.8,N
1595240255.6,286047001.5,N
1595240275.5,286047000.1,N
1595240295.3,286047000.0,N
1595240315.1,286047001.1,N
1595240335.9,286046996.6,N
1595240355.7,286046997.2,N
1595240375.6,286046994.9,Y
1595240395.4,286046995.0,P
1595240415.2,286046997.4,N
1595240435.1,286046995.4,N
1595240436.0,286046995.4,N
1595240455.8,286046996.9,N
1595240475.7,286046996.9,N
1595240495.5,286046999.0,N
1595240515.3,286047000.5,N
1595240535.2,286047002.5,N
1595240555.0,286047002.8,N
1595240555.9,286047002.8,N
1595240575.8,286047002.5,N
1595240595.6,286047004.0,N
1595240615.4,286046998.9,N
1595240635.3,286047000.4,N
1595240655.1,286047002.5,N
1595240675.8,286047001.0,N
1595240695.7,286047001.2,N
1595240715.5,286047001.0,N
1595240735.4,286047002.5,N
1595240755.2,286047000.3,N
1595240775.0,286047000.5,N
1595240775.9,286047000.5,N
1595240795.8,286047001.1,N
1595240815.6,286047000.5,N
1595240835.4,286046998.4,N
1595240855.3,286047000.8,N
1595240875.1,286047000.5,N
1595240895.9,286047001.5,N
1595240915.7,286047007.2,Y
1595240935.6,286047008.8,P
1595240955.4,286047007.1,N
1595240975.2,286047006.4,N
1595240995.1,286047007.5,N
1595240996.0,286047007.5,N
1595241015.8,286047006.5,N
1595241035.7,286047008.4,Y
1595241055.5,286047002.8,P
1595241075.3,286047001.2,N
1595241095.2,286047001.1,N
1595241115.0,286046998.6,N
1595241115.9,286046998.6,N
1595241135.8,286046999.9,N
1595241155.6,286047004.4,N
1595241175.4,286047001.3,N
1595241195.3,286047003.3,N
1595241215.1,286046999.9,N
1595241235.9,286047000.0,N
1595241255.7,286046997.5,N
1595241275.5,286046998.1,N
1595241295.4,286047003.9,N
1595241315.2,286047003.9,N
1595241335.1,286046997.0,N
1595241336.0,286046997.0,N
1595241355.8,286046996.9,N
1595241375.6,286046995.8,N
1595241395.5,286046995.7,N
1595241415.3,286046997.8,N
1595241435.2,286046997.5,N
1595241455.9,286046995.4,N
1595241475.7,286046996.6,N
1595241495.6,286047000.8,N
1595241515.4,286047002.8,N
1595241535.2,286047000.6,N
1595241555.1,286046998.7,N
1595241556.0,286046998.7,N
1595241575.8,286047000.5,N
1595241595.7,286047004.4,N
1595241615.5,286047004.1,N
1595241635.3,286047004.1,N
1595241655.2,286046999.7,N
1595241675.0,286046998.7,N
1595241675.9,286046998.7,N
1595241695.8,286046999.1,N
1595241715.6,286046998.6,N
1595241735.4,286047002.6,N
1595241755.3,286047002.7,N
1595241775.1,286046999.0,N
1595241795.8,286046998.6,N
1595241815.7,286047001.1,N
1595241835.5,286047000.5,N
1595241855.4,286047001.6,N
1595241875.2,286047001.0,N
1595241895.0,286046997.5,N
1595241895.9,286046997.5,N
1595241915.8,286046994.9,N
1595241935.6,286046995.5,N
1595241955.5,286046995.6,N
1595241975.3,286046995.0,N
1595241995.1,286046997.4,N
1595242015.9,286046998.4,N
1595242035.7,286046999.5,N
1595242055.5,286046997.2,N
1595242075.4,286046996.7,N
1595242095.2,286046999.2,N
1595242115.1,286046998.3,N
1595242116.0,286046998.3,N
1595242135.8,286046998.8,N
1595242155.6,286047001.0,N
1595242175.5,286047004.3,N
1595242195.3,286047006.0,N
1595242215.2,286047005.2,N
1595242235.9,286047004.9,N
1595242255.7,286047002.2,N
1595242275.6,286047002.6,N
1595242295.4,286047000.6,N
1595242315.2,286046998.5,N
1595242335.1,286047001.2,N
1595242336.0,286047001.2,N
1595242355.8,286046998.7,N
1595242375.7,286047000.7,N
1595242395.5,286047002.0,N
1595242415.3,286047001.2,N
1595242435.2,286046999.5,N
1595242455.0,286046993.6,N
1595242455.9,286046993.6,N
1595242475.8,286046994.5,N
1595242495.6,286046993.1,N
1595242515.4,286046991.8,N
1595242535.3,286046992.5,N
1595242555.1,286046996.2,N
1595242575.9,286046994.6,N
1595242595.7,286046990.8,N
1595242615.5,286046992.8,N
1595242635.4,286046996.0,N
1595242655.2,286046997.0,N
1595242675.1,286047000.4,N
1595242676.0,286047000.4,N
1595242695.8,286047001.5,N
1595242715.6,286047001.8,N
1595242735.5,286047002.0,N
1595242755.3,286046999.9,N
1595242775.2,286046999.1,N
1595242795.9,286046997.4,N
